Weather History for Grosse Ile, MI

Change the Weather History Date:

Sunday, December 23, 2012

  Actual Average (KDTW) Record (KDTW)
Temperature  
Mean Temperature 29 °F 28 °F  
Max Temperature 35 °F 34 °F 56 °F (1893)
Min Temperature 23 °F 22 °F -9 °F (1960)
Degree Days  
Heating Degree Days 36 37  
Month to date heating degree days 779  
Since 1 July heating degree days 1994  
Cooling Degree Days 0 0  
Month to date cooling degree days 0  
Year to date cooling degree days 803  
Moisture  
Dew Point 21 °F    
Average Humidity 72    
Maximum Humidity 86    
Minimum Humidity 56    
Precipitation  
Precipitation 0.00 in 0.08 in 1.18 in (1932)
Month to date precipitation 1.85  
Year to date precipitation 32.86  
Snow  
Snow 0.00 in 0.40 in 8.40 in (2004)
Month to date snowfall 6.6  
Since 1 July snowfall 8.2  
Snow Depth -    
Sea Level Pressure  
Sea Level Pressure 29.95 in    
Wind  
Wind Speed 6 mph (WNW)    
Max Wind Speed 9 mph    
Max Gust Speed -    
Visibility 10 miles    
Events      
T = Trace of Precipitation, MM = Missing Value Source: NWS Daily Summary

Daily Weather History Graph

Daily Weather History Graph

Search for Another Location

Airport:

Trip Planner

Search our weather history database for the weather conditions in past years. The results will help you decide how hot, cold, wet, or windy it might be!

Date:

Astronomy

Dec. 23, 2012 Rise Set
Actual Time 7:58 AM EST 5:05 PM EST
Civil Twilight 7:26 AM EST 5:37 PM EST
Nautical Twilight 6:51 AM EST 6:12 PM EST
Astronomical Twilight 6:17 AM EST 6:46 PM EST
Moon 1:57 PM EST (12/23) 3:38 AM EST (12/23)
Length of Visible Light 10h 10m
Length of Day
9h 06m
Waxing Gibbous, 81% of the Moon is Illuminated
Dec 23
Waxing Gibbous
Dec 28
Full
Jan 4
Last Quarter
Jan 11
New
Jan 18
First Quarter

Hourly Weather History & Observations

Time (EST) Temp. Windchill Dew Point Humidity Pressure Visibility Wind Dir Wind Speed Gust Speed Precip Events Conditions
12:14 AM 26.6 °F 18.2 °F 23.0 °F 86% 30.00 in 10.0 mi WSW 8.1 mph - N/A   Clear
12:35 AM 26.6 °F 19.1 °F 21.2 °F 80% 29.99 in 10.0 mi WSW 6.9 mph - N/A   Clear
12:54 AM 26.6 °F 19.1 °F 21.2 °F 80% 29.99 in 10.0 mi WSW 6.9 mph - N/A   Clear
1:14 AM 26.6 °F 18.2 °F 21.2 °F 80% 29.98 in 10.0 mi SW 8.1 mph - N/A   Clear
1:35 AM 26.6 °F 19.1 °F 21.2 °F 80% 29.97 in 10.0 mi SW 6.9 mph - N/A   Clear
1:54 AM 26.6 °F 20.0 °F 21.2 °F 80% 29.97 in 10.0 mi WSW 5.8 mph - N/A   Clear
2:14 AM 24.8 °F 16.9 °F 21.2 °F 86% 29.97 in 10.0 mi WSW 6.9 mph - N/A   Clear
2:35 AM 24.8 °F 17.9 °F 21.2 °F 86% 29.96 in 10.0 mi WSW 5.8 mph - N/A   Clear
2:54 AM 24.8 °F 17.9 °F 21.2 °F 86% 29.96 in 10.0 mi SW 5.8 mph - N/A   Clear
3:14 AM 24.8 °F 17.9 °F 19.4 °F 80% 29.94 in 10.0 mi SW 5.8 mph - N/A   Clear
3:34 AM 24.8 °F 20.5 °F 19.4 °F 80% 29.93 in 10.0 mi SW 3.5 mph - N/A   Clear
3:54 AM 24.8 °F - 19.4 °F 80% 29.93 in 10.0 mi Calm Calm - N/A   Clear
4:14 AM 24.8 °F 19.1 °F 19.4 °F 80% 29.91 in 10.0 mi SW 4.6 mph - N/A   Clear
4:34 AM 24.8 °F 19.1 °F 19.4 °F 80% 29.91 in 10.0 mi SW 4.6 mph - N/A   Clear
4:54 AM 24.8 °F 20.5 °F 19.4 °F 80% 29.90 in 10.0 mi SW 3.5 mph - N/A   Clear
5:14 AM 24.8 °F 20.5 °F 19.4 °F 80% 29.90 in 10.0 mi SW 3.5 mph - N/A   Clear
5:34 AM 24.8 °F 20.5 °F 19.4 °F 80% 29.90 in 10.0 mi SSW 3.5 mph - N/A   Clear
5:54 AM 24.8 °F 20.5 °F 19.4 °F 80% 29.90 in 10.0 mi SW 3.5 mph - N/A   Clear
6:14 AM 24.8 °F 19.1 °F 19.4 °F 80% 29.90 in 10.0 mi SW 4.6 mph - N/A   Clear
6:34 AM 24.8 °F 17.9 °F 19.4 °F 80% 29.90 in 10.0 mi SW 5.8 mph - N/A   Clear
6:55 AM 24.8 °F 17.9 °F 19.4 °F 80% 29.90 in 10.0 mi SW 5.8 mph - N/A   Clear
7:14 AM 24.8 °F 17.9 °F 19.4 °F 80% 29.89 in 10.0 mi SW 5.8 mph - N/A   Clear
7:34 AM 24.8 °F 19.1 °F 19.4 °F 80% 29.90 in 10.0 mi SW 4.6 mph - N/A   Clear
7:54 AM 23.0 °F 17.0 °F 19.4 °F 86% 29.91 in 10.0 mi WSW 4.6 mph - N/A   Clear
8:14 AM 23.0 °F 18.4 °F 19.4 °F 86% 29.91 in 10.0 mi WSW 3.5 mph - N/A   Clear
8:35 AM 23.0 °F 17.0 °F 19.4 °F 86% 29.91 in 10.0 mi WSW 4.6 mph - N/A   Clear
8:54 AM 24.8 °F 19.1 °F 19.4 °F 80% 29.91 in 10.0 mi WSW 4.6 mph - N/A   Clear
9:14 AM 24.8 °F 17.9 °F 19.4 °F 80% 29.91 in 10.0 mi West 5.8 mph - N/A   Clear
9:34 AM 24.8 °F 17.9 °F 21.2 °F 86% 29.92 in 10.0 mi West 5.8 mph - N/A   Clear
9:54 AM 26.6 °F 21.2 °F 21.2 °F 80% 29.92 in 10.0 mi West 4.6 mph - N/A   Clear
10:14 AM 28.4 °F 21.2 °F 21.2 °F 74% 29.92 in 10.0 mi WNW 6.9 mph - N/A   Clear
10:34 AM 28.4 °F 20.4 °F 21.2 °F 74% 29.93 in 10.0 mi WNW 8.1 mph - N/A   Clear
10:54 AM 30.2 °F 22.6 °F 21.2 °F 69% 29.93 in 10.0 mi NW 8.1 mph - N/A   Clear
11:14 AM 30.2 °F 24.3 °F 23.0 °F 75% 29.92 in 10.0 mi NW 5.8 mph - N/A   Clear
11:34 AM 32.0 °F 27.5 °F 23.0 °F 69% 29.92 in 10.0 mi NW 4.6 mph - N/A   Clear
11:54 AM 33.8 °F 27.7 °F 23.0 °F 65% 29.92 in 10.0 mi NW 6.9 mph - N/A   Clear
12:14 PM 33.8 °F 27.7 °F 21.2 °F 60% 29.92 in 10.0 mi NW 6.9 mph - N/A   Clear
12:34 PM 33.8 °F 29.6 °F 21.2 °F 60% 29.92 in 10.0 mi NNW 4.6 mph - N/A   Clear
12:54 PM 33.8 °F 30.8 °F 21.2 °F 60% 29.91 in 10.0 mi NW 3.5 mph - N/A   Clear
1:14 PM 35.6 °F 30.7 °F 21.2 °F 56% 29.91 in 10.0 mi North 5.8 mph - N/A   Clear
1:34 PM 35.6 °F 29.9 °F 23.0 °F 60% 29.91 in 10.0 mi NW 6.9 mph - N/A   Clear
1:54 PM 35.6 °F 29.2 °F 23.0 °F 60% 29.90 in 10.0 mi NNW 8.1 mph - N/A   Clear
2:14 PM 35.6 °F 29.9 °F 23.0 °F 60% 29.91 in 10.0 mi North 6.9 mph - N/A   Clear
2:34 PM 35.6 °F 29.9 °F 23.0 °F 60% 29.91 in 10.0 mi NW 6.9 mph - N/A   Scattered Clouds
2:54 PM 35.6 °F 30.7 °F 23.0 °F 60% 29.91 in 10.0 mi WNW 5.8 mph - N/A   Scattered Clouds
3:15 PM 35.6 °F 30.7 °F 23.0 °F 60% 29.92 in 10.0 mi West 5.8 mph - N/A   Clear
3:34 PM 35.6 °F 32.8 °F 23.0 °F 60% 29.93 in 10.0 mi WNW 3.5 mph - N/A   Mostly Cloudy
3:54 PM 35.6 °F 31.7 °F 23.0 °F 60% 29.93 in 10.0 mi West 4.6 mph - N/A   Overcast
4:15 PM 35.6 °F 32.8 °F 23.0 °F 60% 29.94 in 10.0 mi WSW 3.5 mph - N/A   Mostly Cloudy
4:34 PM 35.6 °F 29.9 °F 23.0 °F 60% 29.94 in 10.0 mi NW 6.9 mph - N/A   Overcast
4:54 PM 33.8 °F 26.4 °F 23.0 °F 65% 29.95 in 10.0 mi NW 9.2 mph - N/A   Overcast
5:14 PM 33.8 °F 27.7 °F 24.8 °F 70% 29.96 in 10.0 mi NW 6.9 mph - N/A   Overcast
5:34 PM 33.8 °F 26.4 °F 23.0 °F 65% 29.97 in 10.0 mi NW 9.2 mph - N/A   Mostly Cloudy
5:54 PM 33.8 °F 28.6 °F 23.0 °F 65% 29.97 in 10.0 mi NNW 5.8 mph - N/A   Overcast
6:14 PM 33.8 °F 27.7 °F 23.0 °F 65% 29.97 in 10.0 mi NNW 6.9 mph - N/A   Overcast
6:34 PM 33.8 °F 28.6 °F 21.2 °F 60% 29.98 in 10.0 mi NW 5.8 mph - N/A   Overcast
6:54 PM 32.0 °F 24.8 °F 21.2 °F 64% 29.99 in 10.0 mi North 8.1 mph - N/A   Overcast
7:14 PM 30.2 °F 26.7 °F 21.2 °F 69% 29.99 in 10.0 mi NNW 3.5 mph - N/A   Mostly Cloudy
7:34 PM 30.2 °F 25.4 °F 21.2 °F 69% 30.00 in 10.0 mi NNW 4.6 mph - N/A   Mostly Cloudy
7:54 PM 30.2 °F 24.3 °F 21.2 °F 69% 30.01 in 10.0 mi NNW 5.8 mph - N/A   Scattered Clouds
8:14 PM 30.2 °F 25.4 °F 21.2 °F 69% 30.01 in 10.0 mi North 4.6 mph - N/A   Scattered Clouds
8:34 PM 30.2 °F 26.7 °F 21.2 °F 69% 30.01 in 10.0 mi North 3.5 mph - N/A   Clear
8:55 PM 28.4 °F - 21.2 °F 74% 30.02 in 10.0 mi Calm Calm - N/A   Clear
9:14 PM 30.2 °F - 19.4 °F 64% 30.02 in 10.0 mi Calm Calm - N/A   Clear
9:55 PM 28.4 °F 23.3 °F 19.4 °F 69% 30.02 in 10.0 mi NNE 4.6 mph - N/A   Clear
10:14 PM 28.4 °F 24.6 °F 19.4 °F 69% 30.01 in 10.0 mi NNE 3.5 mph - N/A   Clear
10:34 PM 28.4 °F 24.6 °F 19.4 °F 69% 30.02 in 10.0 mi North 3.5 mph - N/A   Clear
10:54 PM 28.4 °F 24.6 °F 19.4 °F 69% 30.01 in 10.0 mi North 3.5 mph - N/A   Clear
11:14 PM 28.4 °F 24.6 °F 19.4 °F 69% 30.01 in 10.0 mi NE 3.5 mph - N/A   Clear
11:34 PM 26.6 °F 22.6 °F 19.4 °F 74% 30.00 in 10.0 mi NE 3.5 mph - N/A   Clear
11:54 PM 28.4 °F 24.6 °F 19.4 °F 69% 30.00 in 10.0 mi NE 3.5 mph - N/A   Clear